sat.trackr.live / text

‹ back to catalog

STARLINK-34705

NORAD 64932 · 2025-158A

PAYLOAD ACTIVE UNKNOWN

§ Identity

Operator
Country
US
Launch date
2025-07-27
Launch site
AFWTR
Launch vehicle
Mass (kg)
RCS (m²)

Purposes: comms

External: N2YO · Heavens-Above · Gunter

§ Orbital elements

Epoch: 2026-09-20T13:16:42.365568Z

Period
93.91 min
Inclination
97.2836°
Eccentricity
0.0001895
Mean motion
15.33449898 rev/d
Perigee alt
464.2 km
Apogee alt
466.8 km
Semi-major
6,843.7 km
B*
5.3144e-4
RAAN
121.8385°
Arg perigee
99.1391°
Mean anomaly
261.0067°
Rev number
6,470

§ Raw data

STARLINK-347051 64932U 25158A   26263.55326812  .00017124  00000+0  53144-3 0  99902 64932  97.2836 121.8385 0001895  99.1391 261.0067 15.33449898 64707

JSON: /api/v1/satellites/64932 · /tle

For live sub-satellite position, see the globe view (requires WebGL).

§ Visibility from observer

Set your observer location to see the next 7 days of passes ≥ 10°. The values pass through the URL so the page stays shareable.

No JS? Fill the form by hand. The geolocation button needs JavaScript.